Year,Month,Day,Hour,Minute,Value (Times are PST for temperature in C)
2014,08,12,00,00,22.20
2014,08,12,00,01,22.20
2014,08,12,00,02,22.20
2014,08,12,00,03,22.20
2014,08,12,00,04,22.20
2014,08,12,00,05,22.10
2014,08,12,00,06,22.10
2014,08,12,00,07,22.10
2014,08,12,00,08,22.10
2014,08,12,00,09,22.10
2014,08,12,00,10,22.10
2014,08,12,00,11,22.10
2014,08,12,00,12,22.10
2014,08,12,00,13,22.10
2014,08,12,00,14,22.10
2014,08,12,00,15,22.10
2014,08,12,00,16,22.00
2014,08,12,00,17,22.00
2014,08,12,00,18,22.00
2014,08,12,00,19,21.90
2014,08,12,00,20,21.90
2014,08,12,00,21,21.90
2014,08,12,00,22,21.80
2014,08,12,00,23,21.80
2014,08,12,00,24,21.80
2014,08,12,00,25,21.80
2014,08,12,00,26,21.70
2014,08,12,00,27,21.70
2014,08,12,00,28,21.70
2014,08,12,00,29,21.70
2014,08,12,00,30,21.70
2014,08,12,00,31,21.70
2014,08,12,00,32,21.70
2014,08,12,00,33,21.60
2014,08,12,00,34,21.60
2014,08,12,00,35,21.60
2014,08,12,00,36,21.60
2014,08,12,00,37,21.60
2014,08,12,00,38,21.60
2014,08,12,00,39,21.60
2014,08,12,00,40,21.70
2014,08,12,00,41,21.70
2014,08,12,00,42,21.70
2014,08,12,00,43,21.70
2014,08,12,00,44,21.70
2014,08,12,00,45,21.70
2014,08,12,00,46,21.70
2014,08,12,00,47,21.70
2014,08,12,00,48,21.80
2014,08,12,00,49,21.80
2014,08,12,00,50,21.80
2014,08,12,00,51,21.90
2014,08,12,00,52,21.90
2014,08,12,00,53,21.90
2014,08,12,00,54,22.00
2014,08,12,00,55,22.00
2014,08,12,00,56,22.10
2014,08,12,00,57,22.10
2014,08,12,00,58,22.20
2014,08,12,00,59,22.20
2014,08,12,01,00,22.20
2014,08,12,01,01,22.20
2014,08,12,01,02,22.20
2014,08,12,01,03,22.20
2014,08,12,01,04,22.20
2014,08,12,01,05,22.20
2014,08,12,01,06,22.20
2014,08,12,01,07,22.20
2014,08,12,01,08,22.20
2014,08,12,01,09,22.20
2014,08,12,01,10,22.20
2014,08,12,01,11,22.20
2014,08,12,01,12,22.20
2014,08,12,01,13,22.20
2014,08,12,01,14,22.10
2014,08,12,01,15,22.10
2014,08,12,01,16,22.10
2014,08,12,01,17,22.10
2014,08,12,01,18,22.10
2014,08,12,01,19,22.00
2014,08,12,01,20,22.00
2014,08,12,01,21,22.00
2014,08,12,01,22,22.00
2014,08,12,01,23,22.10
2014,08,12,01,24,22.10
2014,08,12,01,25,22.10
2014,08,12,01,26,22.10
2014,08,12,01,27,22.10
2014,08,12,01,28,22.10
2014,08,12,01,29,22.10
2014,08,12,01,30,22.20
2014,08,12,01,31,22.20
2014,08,12,01,32,22.20
2014,08,12,01,33,22.20
2014,08,12,01,34,22.30
2014,08,12,01,35,22.30
2014,08,12,01,36,22.30
2014,08,12,01,37,22.30
2014,08,12,01,38,22.30
2014,08,12,01,39,22.30
2014,08,12,01,40,22.30
2014,08,12,01,41,22.20
2014,08,12,01,42,22.20
2014,08,12,01,43,22.20
2014,08,12,01,44,22.20
2014,08,12,01,45,22.20
2014,08,12,01,46,22.20
2014,08,12,01,47,22.20
2014,08,12,01,48,22.20
2014,08,12,01,49,22.20
2014,08,12,01,50,22.20
2014,08,12,01,51,22.20
2014,08,12,01,52,22.20
2014,08,12,01,53,22.20
2014,08,12,01,54,22.10
2014,08,12,01,55,22.10
2014,08,12,01,56,22.10
2014,08,12,01,57,22.10
2014,08,12,01,58,22.10
2014,08,12,01,59,22.10
2014,08,12,02,00,22.20
2014,08,12,02,01,22.20
2014,08,12,02,02,22.20
2014,08,12,02,03,22.20
2014,08,12,02,04,22.20
2014,08,12,02,05,22.20
2014,08,12,02,06,22.20
2014,08,12,02,07,22.20
2014,08,12,02,08,22.20
2014,08,12,02,09,22.10
2014,08,12,02,10,22.10
2014,08,12,02,11,22.10
2014,08,12,02,12,22.10
2014,08,12,02,13,22.00
2014,08,12,02,14,22.00
2014,08,12,02,15,22.00
2014,08,12,02,16,22.00
2014,08,12,02,17,21.90
2014,08,12,02,18,21.90
2014,08,12,02,19,21.90
2014,08,12,02,20,21.80
2014,08,12,02,21,21.70
2014,08,12,02,22,21.70
2014,08,12,02,23,21.60
2014,08,12,02,24,21.60
2014,08,12,02,25,21.60
2014,08,12,02,26,21.50
2014,08,12,02,27,21.50
2014,08,12,02,28,21.40
2014,08,12,02,29,21.40
2014,08,12,02,30,21.40
2014,08,12,02,31,21.30
2014,08,12,02,32,21.30
2014,08,12,02,33,21.30
2014,08,12,02,34,21.30
2014,08,12,02,35,21.30
2014,08,12,02,36,21.30
2014,08,12,02,37,21.30
2014,08,12,02,38,21.30
2014,08,12,02,39,21.30
2014,08,12,02,40,21.30
2014,08,12,02,41,21.30
2014,08,12,02,42,21.30
2014,08,12,02,43,21.30
2014,08,12,02,44,21.30
2014,08,12,02,45,21.30
2014,08,12,02,46,21.30
2014,08,12,02,47,21.30
2014,08,12,02,48,21.30
2014,08,12,02,49,21.30
2014,08,12,02,50,21.30
2014,08,12,02,51,21.30
2014,08,12,02,52,21.20
2014,08,12,02,53,21.20
2014,08,12,02,54,21.20
2014,08,12,02,55,21.20
2014,08,12,02,56,21.30
2014,08,12,02,57,21.30
2014,08,12,02,58,21.30
2014,08,12,02,59,21.30
2014,08,12,03,00,21.30
2014,08,12,03,01,21.30
2014,08,12,03,02,21.30
2014,08,12,03,03,21.30
2014,08,12,03,04,21.30
2014,08,12,03,05,21.30
2014,08,12,03,06,21.30
2014,08,12,03,07,21.30
2014,08,12,03,08,21.20
2014,08,12,03,09,21.20
2014,08,12,03,10,21.20
2014,08,12,03,11,21.20
2014,08,12,03,12,21.20
2014,08,12,03,13,21.20
2014,08,12,03,14,21.20
2014,08,12,03,15,21.20
2014,08,12,03,16,21.20
2014,08,12,03,17,21.20
2014,08,12,03,18,21.20
2014,08,12,03,19,21.20
2014,08,12,03,20,21.20
2014,08,12,03,21,21.20
2014,08,12,03,22,21.20
2014,08,12,03,23,21.20
2014,08,12,03,24,21.20
2014,08,12,03,25,21.20
2014,08,12,03,26,21.20
2014,08,12,03,27,21.20
2014,08,12,03,28,21.20
2014,08,12,03,29,21.20
2014,08,12,03,30,21.20
2014,08,12,03,31,21.20
2014,08,12,03,32,21.20
2014,08,12,03,33,21.20
2014,08,12,03,34,21.20
2014,08,12,03,35,21.10
2014,08,12,03,36,21.10
2014,08,12,03,37,21.10
2014,08,12,03,38,21.10
2014,08,12,03,39,21.10
2014,08,12,03,40,21.10
2014,08,12,03,41,21.10
2014,08,12,03,42,21.10
2014,08,12,03,43,21.10
2014,08,12,03,44,21.10
2014,08,12,03,45,21.10
2014,08,12,03,46,21.00
2014,08,12,03,47,21.00
2014,08,12,03,48,21.00
2014,08,12,03,49,21.00
2014,08,12,03,50,21.00
2014,08,12,03,51,21.00
2014,08,12,03,52,20.90
2014,08,12,03,53,20.90
2014,08,12,03,54,20.90
2014,08,12,03,55,20.80
2014,08,12,03,56,20.80
2014,08,12,03,57,20.80
2014,08,12,03,58,20.80
2014,08,12,03,59,20.80
2014,08,12,04,00,20.70
2014,08,12,04,01,20.70
2014,08,12,04,02,20.70
2014,08,12,04,03,20.70
2014,08,12,04,04,20.70
2014,08,12,04,05,20.70
2014,08,12,04,06,20.70
2014,08,12,04,07,20.70
2014,08,12,04,08,20.70
2014,08,12,04,09,20.70
2014,08,12,04,10,20.70
2014,08,12,04,11,20.70
2014,08,12,04,12,20.70
2014,08,12,04,13,20.70
2014,08,12,04,14,20.70
2014,08,12,04,15,20.70
2014,08,12,04,16,20.70
2014,08,12,04,17,20.70
2014,08,12,04,18,20.70
2014,08,12,04,19,20.70
2014,08,12,04,20,20.70
2014,08,12,04,21,20.60
2014,08,12,04,22,20.60
2014,08,12,04,23,20.60
2014,08,12,04,24,20.60
2014,08,12,04,25,20.60
2014,08,12,04,26,20.60
2014,08,12,04,27,20.50
2014,08,12,04,28,20.50
2014,08,12,04,29,20.50
2014,08,12,04,30,20.50
2014,08,12,04,31,20.40
2014,08,12,04,32,20.40
2014,08,12,04,33,20.40
2014,08,12,04,34,20.40
2014,08,12,04,35,20.40
2014,08,12,04,36,20.40
2014,08,12,04,37,20.40
2014,08,12,04,38,20.50
2014,08,12,04,39,20.50
2014,08,12,04,40,20.60
2014,08,12,04,41,20.60
2014,08,12,04,42,20.60
2014,08,12,04,43,20.60
2014,08,12,04,44,20.70
2014,08,12,04,45,20.70
2014,08,12,04,46,20.70
2014,08,12,04,47,20.70
2014,08,12,04,48,20.80
2014,08,12,04,49,20.80
2014,08,12,04,50,20.80
2014,08,12,04,51,20.80
2014,08,12,04,52,20.80
2014,08,12,04,53,20.80
2014,08,12,04,54,20.80
2014,08,12,04,55,20.80
2014,08,12,04,56,20.70
2014,08,12,04,57,20.70
2014,08,12,04,58,20.70
2014,08,12,04,59,20.70
2014,08,12,05,00,20.80
2014,08,12,05,01,20.80
2014,08,12,05,02,20.80
2014,08,12,05,03,20.80
2014,08,12,05,04,20.80
2014,08,12,05,05,20.80
2014,08,12,05,06,20.80
2014,08,12,05,07,20.80
2014,08,12,05,08,20.80
2014,08,12,05,09,20.80
2014,08,12,05,10,20.70
2014,08,12,05,11,20.70
2014,08,12,05,12,20.70
2014,08,12,05,13,20.70
2014,08,12,05,14,20.70
2014,08,12,05,15,20.60
2014,08,12,05,16,20.60
2014,08,12,05,17,20.60
2014,08,12,05,18,20.60
2014,08,12,05,19,20.60
2014,08,12,05,20,20.60
2014,08,12,05,21,20.60
2014,08,12,05,22,20.60
2014,08,12,05,23,20.50
2014,08,12,05,24,20.50
2014,08,12,05,25,20.50
2014,08,12,05,26,20.50
2014,08,12,05,27,20.40
2014,08,12,05,28,20.40
2014,08,12,05,29,20.40
2014,08,12,05,30,20.40
2014,08,12,05,31,20.40
2014,08,12,05,32,20.40
2014,08,12,05,33,20.40
2014,08,12,05,34,20.40
2014,08,12,05,35,20.40
2014,08,12,05,36,20.40
2014,08,12,05,37,20.30
2014,08,12,05,38,20.30
2014,08,12,05,39,20.30
2014,08,12,05,40,20.30
2014,08,12,05,41,20.30
2014,08,12,05,42,20.30
2014,08,12,05,43,20.30
2014,08,12,05,44,20.30
2014,08,12,05,45,20.30
2014,08,12,05,46,20.30
2014,08,12,05,47,20.20
2014,08,12,05,48,20.20
2014,08,12,05,49,20.20
2014,08,12,05,50,20.20
2014,08,12,05,51,20.20
2014,08,12,05,52,20.20
2014,08,12,05,53,20.20
2014,08,12,05,54,20.20
2014,08,12,05,55,20.20
2014,08,12,05,56,20.20
2014,08,12,05,57,20.20
2014,08,12,05,58,20.20
2014,08,12,05,59,20.20
2014,08,12,06,00,20.20
2014,08,12,06,01,20.20
2014,08,12,06,02,20.30
2014,08,12,06,03,20.30
2014,08,12,06,04,20.30
2014,08,12,06,05,20.30
2014,08,12,06,06,20.30
2014,08,12,06,07,20.30
2014,08,12,06,08,20.30
2014,08,12,06,09,20.30
2014,08,12,06,10,20.30
2014,08,12,06,11,20.30
2014,08,12,06,12,20.30
2014,08,12,06,13,20.30
2014,08,12,06,14,20.30
2014,08,12,06,15,20.40
2014,08,12,06,16,20.40
2014,08,12,06,17,20.30
2014,08,12,06,18,20.30
2014,08,12,06,19,20.30
2014,08,12,06,20,20.30
2014,08,12,06,21,20.30
2014,08,12,06,22,20.30
2014,08,12,06,23,20.20
2014,08,12,06,24,20.20
2014,08,12,06,25,20.20
2014,08,12,06,26,20.20
2014,08,12,06,27,20.20
2014,08,12,06,28,20.20
2014,08,12,06,29,20.30
2014,08,12,06,30,20.30
2014,08,12,06,31,20.30
2014,08,12,06,32,20.30
2014,08,12,06,33,20.30
2014,08,12,06,34,20.30
2014,08,12,06,35,20.30
2014,08,12,06,36,20.30
2014,08,12,06,37,20.30
2014,08,12,06,38,20.20
2014,08,12,06,39,20.20
2014,08,12,06,40,20.20
2014,08,12,06,41,20.20
2014,08,12,06,42,20.20
2014,08,12,06,43,20.10
2014,08,12,06,44,20.10
2014,08,12,06,45,20.10
2014,08,12,06,46,20.10
2014,08,12,06,47,20.10
2014,08,12,06,48,20.00
2014,08,12,06,49,20.00
2014,08,12,06,50,20.00
2014,08,12,06,51,20.00
2014,08,12,06,52,20.00
2014,08,12,06,53,20.00
2014,08,12,06,54,20.10
2014,08,12,06,55,20.10
2014,08,12,06,56,20.10
2014,08,12,06,57,20.10
2014,08,12,06,58,20.20
2014,08,12,06,59,20.20
2014,08,12,07,00,20.20
2014,08,12,07,01,20.20
2014,08,12,07,02,20.10
2014,08,12,07,03,20.10
2014,08,12,07,04,20.10
2014,08,12,07,05,20.10
2014,08,12,07,06,20.10
2014,08,12,07,07,20.10
2014,08,12,07,08,20.10
2014,08,12,07,09,20.10
2014,08,12,07,10,20.10
2014,08,12,07,11,20.20
2014,08,12,07,12,20.20
2014,08,12,07,13,20.20
2014,08,12,07,14,20.20
2014,08,12,07,15,20.20
2014,08,12,07,16,20.20
2014,08,12,07,17,20.20
2014,08,12,07,18,20.20
2014,08,12,07,19,20.20
2014,08,12,07,20,20.20
2014,08,12,07,21,20.20
2014,08,12,07,22,20.20
2014,08,12,07,23,20.20
2014,08,12,07,24,20.30
2014,08,12,07,25,20.30
2014,08,12,07,26,20.30
2014,08,12,07,27,20.30
2014,08,12,07,28,20.30
2014,08,12,07,29,20.30
2014,08,12,07,30,20.30
2014,08,12,07,31,20.30
2014,08,12,07,32,20.30
2014,08,12,07,33,20.40
2014,08,12,07,34,20.40
2014,08,12,07,35,20.40
2014,08,12,07,36,20.40
2014,08,12,07,37,20.40
2014,08,12,07,38,20.40
2014,08,12,07,39,20.40
2014,08,12,07,40,20.30
2014,08,12,07,41,20.30
2014,08,12,07,42,20.30
2014,08,12,07,43,20.30
2014,08,12,07,44,20.30
2014,08,12,07,45,20.30
2014,08,12,07,46,20.30
2014,08,12,07,47,20.30
2014,08,12,07,48,20.30
2014,08,12,07,49,20.30
2014,08,12,07,50,20.30
2014,08,12,07,51,20.30
2014,08,12,07,52,20.30
2014,08,12,07,53,20.20
2014,08,12,07,54,20.20
2014,08,12,07,55,20.20
2014,08,12,07,56,20.20
2014,08,12,07,57,20.20
2014,08,12,07,58,20.20
2014,08,12,07,59,20.20
2014,08,12,08,00,20.20
2014,08,12,08,01,20.20
2014,08,12,08,02,20.20
2014,08,12,08,03,20.20
2014,08,12,08,04,20.20
2014,08,12,08,05,20.20
2014,08,12,08,06,20.30
2014,08,12,08,07,20.30
2014,08,12,08,08,20.30
2014,08,12,08,09,20.30
2014,08,12,08,10,20.30
2014,08,12,08,11,20.30
2014,08,12,08,12,20.30
2014,08,12,08,13,20.30
2014,08,12,08,14,20.30
2014,08,12,08,15,20.30
2014,08,12,08,16,20.30
2014,08,12,08,17,20.30
2014,08,12,08,18,20.30
2014,08,12,08,19,20.30
2014,08,12,08,20,20.30
2014,08,12,08,21,20.30
2014,08,12,08,22,20.30
2014,08,12,08,23,20.30
2014,08,12,08,24,20.40
2014,08,12,08,25,20.40
2014,08,12,08,26,20.40
2014,08,12,08,27,20.40
2014,08,12,08,28,20.40
2014,08,12,08,29,20.50
2014,08,12,08,30,20.50
2014,08,12,08,31,20.50
2014,08,12,08,32,20.50
2014,08,12,08,33,20.60
2014,08,12,08,34,20.60
2014,08,12,08,35,20.70
2014,08,12,08,36,20.70
2014,08,12,08,37,20.80
2014,08,12,08,38,20.80
2014,08,12,08,39,20.80
2014,08,12,08,40,20.90
2014,08,12,08,41,20.90
2014,08,12,08,42,21.00
2014,08,12,08,43,21.00
2014,08,12,08,44,21.00
2014,08,12,08,45,21.10
2014,08,12,08,46,21.10
2014,08,12,08,47,21.20
2014,08,12,08,48,21.20
2014,08,12,08,49,21.20
2014,08,12,08,50,21.30
2014,08,12,08,51,21.30
2014,08,12,08,52,21.30
2014,08,12,08,53,21.30
2014,08,12,08,54,21.30
2014,08,12,08,55,21.40
2014,08,12,08,56,21.40
2014,08,12,08,57,21.40
2014,08,12,08,58,21.40
2014,08,12,08,59,21.50
2014,08,12,09,00,21.50
2014,08,12,09,01,21.50
2014,08,12,09,02,21.60
2014,08,12,09,03,21.60
2014,08,12,09,04,21.70
2014,08,12,09,05,21.70
2014,08,12,09,06,21.70
2014,08,12,09,07,21.70
2014,08,12,09,08,21.60
2014,08,12,09,09,21.60
2014,08,12,09,10,21.60
2014,08,12,09,11,21.60
2014,08,12,09,12,21.60
2014,08,12,09,13,21.60
2014,08,12,09,14,21.60
2014,08,12,09,15,21.60
2014,08,12,09,16,21.60
2014,08,12,09,17,21.60
2014,08,12,09,18,21.60
2014,08,12,09,19,21.70
2014,08,12,09,20,21.60
2014,08,12,09,21,21.60
2014,08,12,09,22,21.60
2014,08,12,09,23,21.60
2014,08,12,09,24,21.60
2014,08,12,09,25,21.60
2014,08,12,09,26,21.60
2014,08,12,09,27,21.60
2014,08,12,09,28,21.60
2014,08,12,09,29,21.70
2014,08,12,09,30,21.70
2014,08,12,09,31,21.70
2014,08,12,09,32,21.70
2014,08,12,09,33,21.70
2014,08,12,09,34,21.80
2014,08,12,09,35,21.80
2014,08,12,09,36,21.80
2014,08,12,09,37,21.90
2014,08,12,09,38,21.90
2014,08,12,09,39,22.00
2014,08,12,09,40,22.00
2014,08,12,09,41,22.10
2014,08,12,09,42,22.10
2014,08,12,09,43,22.20
2014,08,12,09,44,22.20
2014,08,12,09,45,22.30
2014,08,12,09,46,22.30
2014,08,12,09,47,22.30
2014,08,12,09,48,22.30
2014,08,12,09,49,22.40
2014,08,12,09,50,22.40
2014,08,12,09,51,22.40
2014,08,12,09,52,22.40
2014,08,12,09,53,22.40
2014,08,12,09,54,22.40
2014,08,12,09,55,22.50
2014,08,12,09,56,22.50
2014,08,12,09,57,22.50
2014,08,12,09,58,22.50
2014,08,12,09,59,22.40
2014,08,12,10,00,22.40
2014,08,12,10,01,22.40
2014,08,12,10,02,22.30
2014,08,12,10,03,22.30
2014,08,12,10,04,22.20
2014,08,12,10,05,22.20
2014,08,12,10,06,22.20
2014,08,12,10,07,22.20
2014,08,12,10,08,22.10
2014,08,12,10,09,22.10
2014,08,12,10,10,22.10
2014,08,12,10,11,22.10
2014,08,12,10,12,22.10
2014,08,12,10,13,22.20
2014,08,12,10,14,22.20
2014,08,12,10,15,22.30
2014,08,12,10,16,22.30
2014,08,12,10,17,22.30
2014,08,12,10,18,22.40
2014,08,12,10,19,22.50
2014,08,12,10,20,22.60
2014,08,12,10,21,22.60
2014,08,12,10,22,22.70
2014,08,12,10,23,22.70
2014,08,12,10,24,22.70
2014,08,12,10,25,22.80
2014,08,12,10,26,22.80
2014,08,12,10,27,22.80
2014,08,12,10,28,22.90
2014,08,12,10,29,22.90
2014,08,12,10,30,23.00
2014,08,12,10,31,23.00
2014,08,12,10,32,23.00
2014,08,12,10,33,23.00
2014,08,12,10,34,23.00
2014,08,12,10,35,23.10
2014,08,12,10,36,23.10
2014,08,12,10,37,23.10
2014,08,12,10,38,23.10
2014,08,12,10,39,23.20
2014,08,12,10,40,23.20
2014,08,12,10,41,23.20
2014,08,12,10,42,23.20
2014,08,12,10,43,23.20
2014,08,12,10,44,23.20
2014,08,12,10,45,23.20
2014,08,12,10,46,23.20
2014,08,12,10,47,23.20
2014,08,12,10,48,23.20
2014,08,12,10,49,23.20
2014,08,12,10,50,23.20
2014,08,12,10,51,23.20
2014,08,12,10,52,23.20
2014,08,12,10,53,23.20
2014,08,12,10,54,23.20
2014,08,12,10,55,23.20
2014,08,12,10,56,23.10
2014,08,12,10,57,23.10
2014,08,12,10,58,23.10
2014,08,12,10,59,23.10
2014,08,12,11,00,23.10
2014,08,12,11,01,23.10
2014,08,12,11,02,23.10
2014,08,12,11,03,23.00
2014,08,12,11,04,23.00
2014,08,12,11,05,23.10
2014,08,12,11,06,23.10
2014,08,12,11,07,23.10
2014,08,12,11,08,23.10
2014,08,12,11,09,23.10
2014,08,12,11,10,23.10
2014,08,12,11,11,23.10
2014,08,12,11,12,23.10
2014,08,12,11,13,23.10
2014,08,12,11,14,23.10
2014,08,12,11,15,23.10
2014,08,12,11,16,23.10
2014,08,12,11,17,23.20
2014,08,12,11,18,23.20
2014,08,12,11,19,23.20
2014,08,12,11,20,23.20
2014,08,12,11,21,23.20
2014,08,12,11,22,23.20
2014,08,12,11,23,23.20
2014,08,12,11,24,23.20
2014,08,12,11,25,23.10
2014,08,12,11,26,23.10
2014,08,12,11,27,23.10
2014,08,12,11,28,23.10
2014,08,12,11,29,23.00
2014,08,12,11,30,23.00
2014,08,12,11,31,22.90
2014,08,12,11,32,22.90
2014,08,12,11,33,22.90
2014,08,12,11,34,22.90
2014,08,12,11,35,22.90
2014,08,12,11,36,22.90
2014,08,12,11,37,22.90
2014,08,12,11,38,22.90
2014,08,12,11,39,22.80
2014,08,12,11,40,22.80
2014,08,12,11,41,22.70
2014,08,12,11,42,22.70
2014,08,12,11,43,22.70
2014,08,12,11,44,22.60
2014,08,12,11,45,22.60
2014,08,12,11,46,22.60
2014,08,12,11,47,22.60
2014,08,12,11,48,22.60
2014,08,12,11,49,22.60
2014,08,12,11,50,22.60
2014,08,12,11,51,22.60
2014,08,12,11,52,22.50
2014,08,12,11,53,22.50
2014,08,12,11,54,22.50
2014,08,12,11,55,22.40
2014,08,12,11,56,22.40
2014,08,12,11,57,22.40
2014,08,12,11,58,22.40
2014,08,12,11,59,22.40
2014,08,12,12,00,22.40
2014,08,12,12,01,22.40
2014,08,12,12,02,22.40
2014,08,12,12,03,22.40
2014,08,12,12,04,22.40
2014,08,12,12,05,22.40
2014,08,12,12,06,22.30
2014,08,12,12,07,22.30
2014,08,12,12,08,22.30
2014,08,12,12,09,22.30
2014,08,12,12,10,22.30
2014,08,12,12,11,22.30
2014,08,12,12,12,22.30
2014,08,12,12,13,22.30
2014,08,12,12,14,22.30
2014,08,12,12,15,22.40
2014,08,12,12,16,22.50
2014,08,12,12,17,22.60
2014,08,12,12,18,22.60
2014,08,12,12,19,22.60
2014,08,12,12,20,22.60
2014,08,12,12,21,22.60
2014,08,12,12,22,22.60
2014,08,12,12,23,22.60
2014,08,12,12,24,22.60
2014,08,12,12,25,22.60
2014,08,12,12,26,22.60
2014,08,12,12,27,22.60
2014,08,12,12,28,22.60
2014,08,12,12,29,22.60
2014,08,12,12,30,22.70
2014,08,12,12,31,22.70
2014,08,12,12,32,22.70
2014,08,12,12,33,22.70
2014,08,12,12,34,22.70
2014,08,12,12,35,22.70
2014,08,12,12,36,22.70
2014,08,12,12,37,22.70
2014,08,12,12,38,22.70
2014,08,12,12,39,22.70
2014,08,12,12,40,22.70
2014,08,12,12,41,22.70
2014,08,12,12,42,22.70
2014,08,12,12,43,22.80
2014,08,12,12,44,22.80
2014,08,12,12,45,22.80
2014,08,12,12,46,22.90
2014,08,12,12,47,22.90
2014,08,12,12,48,22.90
2014,08,12,12,49,22.90
2014,08,12,12,50,23.00
2014,08,12,12,51,23.00
2014,08,12,12,52,23.00
2014,08,12,12,53,23.00
2014,08,12,12,54,23.00
2014,08,12,12,55,23.00
2014,08,12,12,56,23.00
2014,08,12,12,57,23.00
2014,08,12,12,58,23.00
2014,08,12,12,59,23.00
2014,08,12,13,00,23.00
2014,08,12,13,01,22.90
2014,08,12,13,02,22.90
2014,08,12,13,03,22.80
2014,08,12,13,04,22.70
2014,08,12,13,05,22.70
2014,08,12,13,06,22.60
2014,08,12,13,07,22.60
2014,08,12,13,08,22.50
2014,08,12,13,09,22.50
2014,08,12,13,10,22.40
2014,08,12,13,11,22.40
2014,08,12,13,12,22.40
2014,08,12,13,13,22.40
2014,08,12,13,14,22.30
2014,08,12,13,15,22.30
2014,08,12,13,16,22.30
2014,08,12,13,17,22.30
2014,08,12,13,18,22.30
2014,08,12,13,19,22.30
2014,08,12,13,20,22.30
2014,08,12,13,21,22.30
2014,08,12,13,22,22.30
2014,08,12,13,23,22.30
2014,08,12,13,24,22.30
2014,08,12,13,25,22.30
2014,08,12,13,26,22.30
2014,08,12,13,27,22.30
2014,08,12,13,28,22.30
2014,08,12,13,29,22.30
2014,08,12,13,30,22.30
2014,08,12,13,31,22.30
2014,08,12,13,32,22.30
2014,08,12,13,33,22.30
2014,08,12,13,34,22.20
2014,08,12,13,35,22.20
2014,08,12,13,36,22.20
2014,08,12,13,37,22.20
2014,08,12,13,38,22.20
2014,08,12,13,39,22.10
2014,08,12,13,40,22.10
2014,08,12,13,41,22.10
2014,08,12,13,42,22.10
2014,08,12,13,43,22.10
2014,08,12,13,44,22.20
2014,08,12,13,45,22.20
2014,08,12,13,46,22.20
2014,08,12,13,47,22.20
2014,08,12,13,48,22.20
2014,08,12,13,49,22.20
2014,08,12,13,50,22.10
2014,08,12,13,51,22.10
2014,08,12,13,52,22.10
2014,08,12,13,53,22.10
2014,08,12,13,54,22.10
2014,08,12,13,55,22.20
2014,08,12,13,56,22.20
2014,08,12,13,57,22.30
2014,08,12,13,58,22.30
2014,08,12,13,59,22.40
2014,08,12,14,00,22.50
2014,08,12,14,01,22.50
2014,08,12,14,02,22.60
2014,08,12,14,03,22.70
2014,08,12,14,04,22.70
2014,08,12,14,05,22.70
2014,08,12,14,06,22.70
2014,08,12,14,07,22.80
2014,08,12,14,08,22.80
2014,08,12,14,09,22.80
2014,08,12,14,10,22.80
2014,08,12,14,11,22.90
2014,08,12,14,12,22.90
2014,08,12,14,13,23.00
2014,08,12,14,14,23.10
2014,08,12,14,15,23.10
2014,08,12,14,16,23.20
2014,08,12,14,17,23.20
2014,08,12,14,18,23.30
2014,08,12,14,19,23.30
2014,08,12,14,20,23.30
2014,08,12,14,21,23.40
2014,08,12,14,22,23.30
2014,08,12,14,23,23.30
2014,08,12,14,24,23.30
2014,08,12,14,25,23.30
2014,08,12,14,26,23.20
2014,08,12,14,27,23.20
2014,08,12,14,28,23.10
2014,08,12,14,29,23.10
2014,08,12,14,30,23.00
2014,08,12,14,31,22.90
2014,08,12,14,32,22.90
2014,08,12,14,33,22.80
2014,08,12,14,34,22.80
2014,08,12,14,35,22.80
2014,08,12,14,36,22.80
2014,08,12,14,37,22.80
2014,08,12,14,38,22.80
2014,08,12,14,39,22.90
2014,08,12,14,40,23.00
2014,08,12,14,41,23.00
2014,08,12,14,42,23.10
2014,08,12,14,43,23.20
2014,08,12,14,44,23.20
2014,08,12,14,45,23.30
2014,08,12,14,46,23.40
2014,08,12,14,47,23.50
2014,08,12,14,48,23.50
2014,08,12,14,49,23.60
2014,08,12,14,50,23.60
2014,08,12,14,51,23.70
2014,08,12,14,52,23.70
2014,08,12,14,53,23.80
2014,08,12,14,54,23.80
2014,08,12,14,55,23.90
2014,08,12,14,56,23.90
2014,08,12,14,57,24.00
2014,08,12,14,58,24.00
2014,08,12,14,59,24.10
2014,08,12,15,00,24.10
2014,08,12,15,01,24.10
2014,08,12,15,02,24.20
2014,08,12,15,03,24.20
2014,08,12,15,04,24.30
2014,08,12,15,05,24.30
2014,08,12,15,06,24.30
2014,08,12,15,07,24.40
2014,08,12,15,08,24.40
2014,08,12,15,09,24.40
2014,08,12,15,10,24.50
2014,08,12,15,11,24.50
2014,08,12,15,12,24.60
2014,08,12,15,13,24.60
2014,08,12,15,14,24.60
2014,08,12,15,15,24.60
2014,08,12,15,16,24.70
2014,08,12,15,17,24.70
2014,08,12,15,18,24.70
2014,08,12,15,19,24.70
2014,08,12,15,20,24.70
2014,08,12,15,21,24.70
2014,08,12,15,22,24.70
2014,08,12,15,23,24.70
2014,08,12,15,24,24.70
2014,08,12,15,25,24.70
2014,08,12,15,26,24.80
2014,08,12,15,27,24.80
2014,08,12,15,28,24.80
2014,08,12,15,29,24.80
2014,08,12,15,30,24.80
2014,08,12,15,31,24.80
2014,08,12,15,32,24.80
2014,08,12,15,33,24.80
2014,08,12,15,34,24.80
2014,08,12,15,35,24.80
2014,08,12,15,36,24.70
2014,08,12,15,37,24.70
2014,08,12,15,38,24.60
2014,08,12,15,39,24.60
2014,08,12,15,40,24.60
2014,08,12,15,41,24.60
2014,08,12,15,42,24.60
2014,08,12,15,43,24.50
2014,08,12,15,44,24.50
2014,08,12,15,45,24.40
2014,08,12,15,46,24.40
2014,08,12,15,47,24.40
2014,08,12,15,48,24.40
2014,08,12,15,49,24.40
2014,08,12,15,50,24.40
2014,08,12,15,51,24.40
2014,08,12,15,52,24.40
2014,08,12,15,53,24.40
2014,08,12,15,54,24.50
2014,08,12,15,55,24.50
2014,08,12,15,56,24.50
2014,08,12,15,57,24.50
2014,08,12,15,58,24.40
2014,08,12,15,59,24.30
2014,08,12,16,00,24.20
2014,08,12,16,01,24.20
2014,08,12,16,02,24.10
2014,08,12,16,03,24.00
2014,08,12,16,04,23.90
2014,08,12,16,05,23.80
2014,08,12,16,06,23.80
2014,08,12,16,07,23.80
2014,08,12,16,08,23.70
2014,08,12,16,09,23.70
2014,08,12,16,10,23.70
2014,08,12,16,11,23.70
2014,08,12,16,12,23.70
2014,08,12,16,13,23.60
2014,08,12,16,14,23.60
2014,08,12,16,15,23.60
2014,08,12,16,16,23.60
2014,08,12,16,17,23.60
2014,08,12,16,18,23.50
2014,08,12,16,19,23.50
2014,08,12,16,20,23.40
2014,08,12,16,21,23.40
2014,08,12,16,22,23.40
2014,08,12,16,23,23.40
2014,08,12,16,24,23.40
2014,08,12,16,25,23.40
2014,08,12,16,26,23.40
2014,08,12,16,27,23.30
2014,08,12,16,28,23.30
2014,08,12,16,29,23.30
2014,08,12,16,30,23.40
2014,08,12,16,31,23.40
2014,08,12,16,32,23.40
2014,08,12,16,33,23.30
2014,08,12,16,34,23.30
2014,08,12,16,35,23.40
2014,08,12,16,36,23.40
2014,08,12,16,37,23.40
2014,08,12,16,38,23.40
2014,08,12,16,39,23.40
2014,08,12,16,40,23.40
2014,08,12,16,41,23.40
2014,08,12,16,42,23.40
2014,08,12,16,43,23.40
2014,08,12,16,44,23.40
2014,08,12,16,45,23.40
2014,08,12,16,46,23.40
2014,08,12,16,47,23.40
2014,08,12,16,48,23.40
2014,08,12,16,49,23.40
2014,08,12,16,50,23.40
2014,08,12,16,51,23.40
2014,08,12,16,52,23.40
2014,08,12,16,53,23.40
2014,08,12,16,54,23.40
2014,08,12,16,55,23.40
2014,08,12,16,56,23.50
2014,08,12,16,57,23.50
2014,08,12,16,58,23.50
2014,08,12,16,59,23.60
2014,08,12,17,00,23.60
2014,08,12,17,01,23.60
2014,08,12,17,02,23.70
2014,08,12,17,03,23.70
2014,08,12,17,04,23.80
2014,08,12,17,05,23.80
2014,08,12,17,06,23.90
2014,08,12,17,07,24.00
2014,08,12,17,08,24.00
2014,08,12,17,09,24.10
2014,08,12,17,10,24.20
2014,08,12,17,11,24.20
2014,08,12,17,12,24.30
2014,08,12,17,13,24.30
2014,08,12,17,14,24.40
2014,08,12,17,15,24.40
2014,08,12,17,16,24.50
2014,08,12,17,17,24.50
2014,08,12,17,18,24.60
2014,08,12,17,19,24.60